KD0QEO Weather Reports


time (UTC)temp
C
wind
direction
speed
KPH
gust
KPH
rain 1hr
cm
rain 24hr
cm
rain mn
cm
humidity
%
barometer
mb
20260504234549 20 360 27.4 43.5 0.00 0.00 0.00 35 1005.7
20260504233047 21 360 27.4 40.2 0.00 0.00 0.00 34 1005.7
20260504231548 21 360 30.6 41.8 0.00 0.00 0.00 34 1005.2
20260504230048 20 360 20.9 33.8 0.00 0.00 0.00 35 1005.3
20260504224544 20 360 25.7 40.2 0.00 0.00 0.00 34 1005.1
20260504223058 21 360 29.0 41.8 0.00 0.00 0.00 32 1004.9
20260504221604 21 360 25.7 38.6 0.00 0.00 0.00 32 1004.8
20260504220049 21 360 24.1 40.2 0.00 0.00 0.00 32 1005.2
20260504214600 22 360 29.0 40.2 0.00 0.00 0.00 31 1004.6
20260504213100 23 360 27.4 38.6 0.00 0.00 0.00 31 1004.9
20260504211553 23 360 27.4 37.0 0.00 0.00 0.00 31 1004.7
20260504210049 22 360 19.3 27.4 0.00 0.00 0.00 34 1004.7
20260504204600 22 360 24.1 32.2 0.00 0.00 0.00 34 1004.5
20260504203053 23 360 22.5 37.0 0.00 0.00 0.00 33 1004.5
20260504201549 23 360 22.5 35.4 0.00 0.00 0.00 35 1004.2
20260504200050 23 360 22.5 37.0 0.00 0.00 0.00 34 1004.3
20260504194555 24 360 30.6 43.5 0.00 0.00 0.00 33 1004.3
20260504193057 25 360 27.4 40.2 0.00 0.00 0.00 35 1004.0
20260504191547 25 360 27.4 38.6 0.00 0.00 0.00 33 1004.1
20260504190047 25 360 25.7 40.2 0.00 0.00 0.00 31 1004.0
20260504184550 26 360 27.4 43.5 0.00 0.00 0.00 32 1004.0
20260504183050 26 360 25.7 38.6 0.00 0.00 0.00 32 1003.8
20260504181550 26 360 27.4 40.2 0.00 0.00 0.00 28 1003.8
20260504180057 26 360 19.3 35.4 0.00 0.00 0.00 22 1003.6
20260504174553 26 360 22.5 38.6 0.00 0.00 0.00 22 1003.9
20260504173049 26 360 12.9 35.4 0.00 0.00 0.00 24 1003.8
20260504171554 26 360 19.3 37.0 0.00 0.00 0.00 22 1003.9
20260504150107 20 360 16.1 25.7 0.00 0.00 0.00 39 1004.6
20260504081553 11 360 9.7 14.5 0.00 0.00 0.00 57 1004.2
20260504080112 12 360 8.0 16.1 0.00 0.00 0.00 52 1004.4
20260504044551 11 360 6.4 12.9 0.00 0.00 0.00 54 1007.4
20260504043052 13 360 8.0 12.9 0.00 0.00 0.00 51 1007.5
20260504041549 14 360 11.3 17.7 0.00 0.00 0.00 47 1007.7
20260504040110 14 360 9.7 16.1 0.00 0.00 0.00 48 1007.8
20260504034546 15 360 9.7 16.1 0.00 0.00 0.00 45 1007.9
20260504033052 16 360 8.0 14.5 0.00 0.00 0.00 43 1008.1
20260504031551 16 360 8.0 16.1 0.00 0.00 0.00 43 1008.2
20260504030048 16 360 9.7 14.5 0.00 0.00 0.00 42 1008.3
20260504024549 16 360 8.0 14.5 0.00 0.00 0.00 42 1008.3
20260504023057 16 360 6.4 12.9 0.00 0.00 0.00 43 1008.5
20260504021555 17 360 6.4 14.5 0.00 0.00 0.00 42 1008.4
20260504020049 17 360 6.4 12.9 0.00 0.00 0.00 42 1008.4
20260504014600 18 360 8.0 14.5 0.00 0.00 0.00 39 1008.3
20260504013058 19 360 8.0 12.9 0.00 0.00 0.00 37 1008.4
20260504011552 20 360 3.2 6.4 0.00 0.00 0.00 35 1008.4
20260504010055 21 360 4.8 6.4 0.00 0.00 0.00 32 1008.3
20260504004554 21 360 6.4 12.9 0.00 0.00 0.00 33 1008.6
20260504003101 21 360 8.0 14.5 0.00 0.00 0.00 31 1008.9
20260504001604 22 360 8.0 19.3 0.00 0.00 0.00 32 1009.1
20260504000117 22 360 11.3 17.7 0.00 0.00 0.00 31 1009.2